Location: Cella
(44.7333°N, 10.5667°E)
Time: 01:02:11
(UTC+00:00)

COSMOS 1867 COOLANT - Pass Details

Date: 24 September 2021
Orbit: 770 x 802 km, 65.0° (Epoch: 21 October)

Event Time Altitude Azimuth Distance (km) Brightness Sun altitude
Rises 20:08:17 0° 328° (NNW) 3,321 ? -30.6°
Reaches altitude 10° 20:10:50 10° 334° (NNW) 2,387 ? -31.0°
Enters shadow 20:14:32 36° 5° (N) 1,256 ? -31.5°
